This is the latest recevied weather packets stored in our database for station/object OK3MS-5. If no packets are shown the sender has not sent any weather packets the latest 10 day(s).
| Time | Temp. | Humidity | Pressure | Rain* | Wind** | Luminosity | Snow |
|---|---|---|---|---|---|---|---|
| 1787931308 | 29.44° C | 44% | 1008.4 hPa | 0 mm | - | 89 W/m² | - |
| 1787931005 | 29.44° C | 45% | 1008.3 hPa | 0 mm | - | 93 W/m² | - |
| 1787930704 | 29.44° C | 43% | 1008.3 hPa | 0 mm | - | 112 W/m² | - |
| 1787930404 | 29.44° C | 43% | 1008.4 hPa | 0 mm | - | 155 W/m² | - |
| 1787930103 | 29.44° C | 44% | 1008.3 hPa | 0 mm | - | 211 W/m² | - |
| 1787929803 | 29.44° C | 43% | 1008.4 hPa | 0 mm | - | 218 W/m² | - |
| 1787929504 | 30° C | 42% | 1008.4 hPa | 0 mm | - | 305 W/m² | - |
| 1787929202 | 29.44° C | 42% | 1008.8 hPa | 0 mm | - | 352 W/m² | - |
| 1787928904 | 28.89° C | 41% | 1008.7 hPa | 0 mm | - | 394 W/m² | - |
| 1787928604 | 29.44° C | 43% | 1008.9 hPa | 0 mm | - | 283 W/m² | - |
| 1787928304 | 29.44° C | 43% | 1008.9 hPa | 0 mm | - | 204 W/m² | - |
| 1787928003 | 29.44° C | 43% | 1008.9 hPa | 0 mm | - | 183 W/m² | - |
| 1787927704 | 29.44° C | 44% | 1009 hPa | 0 mm | - | 154 W/m² | - |
| 1787927403 | 29.44° C | 43% | 1008.7 hPa | 0 mm | - | 383 W/m² | - |
| 1787927103 | 28.89° C | 42% | 1008.8 hPa | 0 mm | - | 256 W/m² | - |
| 1787926804 | 29.44° C | 42% | 1008.7 hPa | 0 mm | - | 367 W/m² | - |
| 1787926502 | 30° C | 42% | 1008.1 hPa | 0 mm | - | 384 W/m² | - |
| 1787926204 | 29.44° C | 42% | 1007.8 hPa | 0 mm | - | 401 W/m² | - |
| 1787925906 | 29.44° C | 42% | 1007.8 hPa | 0 mm | - | 403 W/m² | - |
| 1787925603 | 30° C | 42% | 1007.6 hPa | 0 mm | - | 410 W/m² | - |
| 1787925303 | 29.44° C | 44% | 1007.8 hPa | 0 mm | - | 424 W/m² | - |
| 1787925003 | 29.44° C | 43% | 1008 hPa | 0 mm | - | 434 W/m² | - |
| 1787924703 | 29.44° C | 43% | 1007.9 hPa | 0 mm | - | 445 W/m² | - |
| 1787924403 | 29.44° C | 44% | 1007.9 hPa | 0 mm | - | 455 W/m² | - |
| 1787924104 | 29.44° C | 44% | 1008 hPa | 0 mm | - | 463 W/m² | - |
* Rain latest hour (hover to see other rain measurements)
** Current wind speed in m/s (hover to see current wind gust speed)